USA 40 R/B DEB, 23359

Orbit data source: Space-Track

USA 40 R/B DEB, 23359 is space debris in LEO originally from a launch on Tue, 08 Aug 1989 UTC launched from the Air Force Eastern Test Range (AFETR). Debris objects in space refer to the collection of defunct objects orbiting the Earth. Examples of debris include non-operational satellites, rocket bodies, and fragments generated from explosions, collisions, or faulty payload assembly.

Loading next visibility...
Identifier
23359, 1989-061AF
Orbit
LEO
Country
Flag of USUS
Related business
Manufacturer
Unknown
Mission
Spacecraft
Bus & Motor
Unknown
Mass
Unknown
Launch date (UTC)
1989-08-08 (37 years ago)
Launch vehicle
Unknown
Launch site
Air Force Eastern Test Range (AFETR)
Object type
Payload
Rocket body
Debris
Shape & HBR
Unknown shape, 0.1 m
Radar Cross Section
Medium (>0.1 m² and <1 m²)

Expand to show TLE details & history
Last TLE update: 4 days ago

TLE from 4 days ago
0 USA 40 R/B DEB
1 23359U 89061AF  26170.04021789  .00021072  00000-0  10238-1 0  9990
2 23359  56.8875 102.4377 2149746  27.5065 342.4647 10.57836348269827
Epoch: 2026-06-19T00:57Z
TLE epoch observation values (Epoch: 2026-06-19T00:57:54.825Z)
Latitude
-0.00011°
Longitude
-179.31571°
Altitude
643.592 km
Speed
8.252 km/s
True Right ascension
06h 49m 45s
True Declination
0° 00' 00"
Sunlit
Object was in daylight at epoch
Visualization orbit readout
Latitude
Unknown
Longitude
Unknown
Altitude
Unknown
Speed
Unknown
Apparent Right ascension
Unknown
Apparent Declination
Unknown
Sunlit
N/A
Visualization observer readout
Local Sidereal Time
03:45:28
Azimuth
Unknown
Elevation
Unknown
Doppler factor
Unknown
Orbital elements
Apogee altitude
4,271.701 km
Perigee altitude
502.989 km
Semi-major axis
8,765.482 km
Eccentricity
0.21497
Inclination
56.8875°
RAAN
102.4377°
Arg. of periapsis
27.5065°
True anomaly
332.58382°
Mean anomaly
342.4647°
Eccentric anomaly
337.81346°
Mean motion
2.64472 °/min
Orbital period
136.12 mins
BSTAR
0.010238
Loading maneuver chart data...
Computing Atmospheric mass density...
Loading historical data...
Loading historical data...
Loading historical data...
Loading historical data...
Loading historical data...
Loading historical data...
Loading historical data...

Documentation

Showing up to 5 results
|